Terminal Aerodrome Forecast
Issued by NWS Spokane, WA

Home | Current Version | Previous Version | Text Only | Print | Product List | Glossary On
Versions: 1 2 3 4 5 6 7 8 9 10 11 12 13 14 15 16 17 18 19 20 21 22 23 24 25 26 27 28
000
FTUS46 KOTX 152327
TAFEAT
TAF
KEAT 152327Z 1600/1624 09003KT P6SM SCT250
     FM160600 31007KT P6SM SCT250
     FM162100 12004KT P6SM SKC=

USA.gov is the U.S. government's official web portal to all federal, state and local government web resources and services.